Time,TemperatureF,DewpointF,PressureIn,WindDirection,WindDirectionDegrees,WindSpeedMPH,WindSpeedGustMPH,Humidity,HourlyPrecipIn,Conditions,Clouds,dailyrainin,SoftwareType,DateUTC
2013-01-02 00:02:00,19.0,6.0,24.67,NNE,22,0.0,1.0,55,0.00,,,0.00,,2013-01-02 07:02:00,
2013-01-02 00:12:00,19.0,6.0,24.67,NNE,22,0.0,1.0,55,0.00,,,0.00,,2013-01-02 07:12:00,
2013-01-02 00:22:00,20.0,6.0,24.67,WSW,247,0.0,3.0,53,0.00,,,0.00,,2013-01-02 07:22:00,
2013-01-02 00:32:00,20.0,5.0,24.67,WSW,247,0.0,0.0,52,0.00,,,0.00,,2013-01-02 07:32:00,
2013-01-02 00:42:00,20.0,5.0,24.67,WSW,247,0.0,0.0,52,0.00,,,0.00,,2013-01-02 07:42:00,
2013-01-02 00:52:00,20.0,6.0,24.66,WSW,247,0.0,2.0,55,0.00,,,0.00,,2013-01-02 07:52:00,
2013-01-02 01:02:00,20.0,6.0,24.67,West,261,0.0,4.0,54,0.00,,,0.00,,2013-01-02 08:02:00,
2013-01-02 01:11:00,20.0,6.0,24.67,West,261,0.0,4.0,54,0.00,,,0.00,,2013-01-02 08:11:00,
2013-01-02 01:22:00,20.0,7.0,24.68,West,261,0.0,1.0,57,0.00,,,0.00,,2013-01-02 08:22:00,
2013-01-02 01:32:00,20.0,8.0,24.68,WNW,288,0.0,2.0,58,0.00,,,0.00,,2013-01-02 08:32:00,
2013-01-02 01:42:00,20.0,8.0,24.68,WNW,288,0.0,2.0,58,0.00,,,0.00,,2013-01-02 08:42:00,
2013-01-02 01:53:00,19.0,8.0,24.68,WNW,288,0.0,1.0,61,0.00,,,0.00,,2013-01-02 08:53:00,
2013-01-02 02:02:00,19.0,9.0,24.68,SSW,213,0.0,1.0,63,0.00,,,0.00,,2013-01-02 09:02:00,
2013-01-02 02:12:00,19.0,9.0,24.68,SSW,213,0.0,1.0,63,0.00,,,0.00,,2013-01-02 09:12:00,
2013-01-02 02:22:00,18.0,8.0,24.68,SSE,163,0.0,1.0,64,0.00,,,0.00,,2013-01-02 09:22:00,
2013-01-02 02:32:00,18.0,8.0,24.68,SSE,163,0.0,2.0,65,0.00,,,0.00,,2013-01-02 09:32:00,
2013-01-02 02:43:00,18.0,8.0,24.68,SSE,163,0.0,2.0,65,0.00,,,0.00,,2013-01-02 09:43:00,
2013-01-02 02:53:00,16.0,8.0,24.69,SSE,163,0.0,2.0,69,0.00,,,0.00,,2013-01-02 09:53:00,
2013-01-02 03:02:00,16.0,7.0,24.69,South,182,1.0,3.0,68,0.00,,,0.00,,2013-01-02 10:02:00,
2013-01-02 03:12:00,16.0,7.0,24.69,South,182,1.0,3.0,68,0.00,,,0.00,,2013-01-02 10:12:00,
2013-01-02 03:22:00,15.0,7.0,24.69,South,181,0.0,1.0,70,0.00,,,0.00,,2013-01-02 10:22:00,
2013-01-02 03:32:00,14.0,6.0,24.69,North,-999,-999.0,-999.0,71,0.00,,,0.00,,2013-01-02 10:32:00,
2013-01-02 03:42:00,14.0,6.0,24.69,North,-999,-999.0,-999.0,71,0.00,,,0.00,,2013-01-02 10:42:00,
2013-01-02 03:52:00,14.0,6.0,24.69,North,-999,-999.0,-999.0,71,0.00,,,0.00,,2013-01-02 10:52:00,
2013-01-02 04:02:00,13.0,5.0,24.68,SSW,203,3.0,8.0,71,0.00,,,0.00,,2013-01-02 11:02:00,
2013-01-02 04:12:00,13.0,5.0,24.68,SSW,203,3.0,8.0,71,0.00,,,0.00,,2013-01-02 11:12:00,
2013-01-02 04:22:00,14.0,6.0,24.68,SW,221,1.0,3.0,69,0.00,,,0.00,,2013-01-02 11:22:00,
2013-01-02 04:32:00,13.0,4.0,24.68,SW,219,2.0,4.0,68,0.00,,,0.00,,2013-01-02 11:32:00,
2013-01-02 04:42:00,13.0,4.0,24.68,SW,219,2.0,4.0,68,0.00,,,0.00,,2013-01-02 11:42:00,
2013-01-02 04:53:00,13.0,4.0,24.68,SW,219,2.0,4.0,68,0.00,,,0.00,,2013-01-02 11:53:00,
2013-01-02 05:02:00,15.0,7.0,24.68,ENE,68,0.0,3.0,69,0.00,,,0.00,,2013-01-02 12:02:00,
2013-01-02 05:12:00,15.0,7.0,24.68,ENE,68,0.0,3.0,69,0.00,,,0.00,,2013-01-02 12:12:00,
2013-01-02 05:22:00,14.0,6.0,24.68,SE,140,2.0,4.0,69,0.00,,,0.00,,2013-01-02 12:22:00,
2013-01-02 05:33:00,12.0,5.0,24.68,ENE,74,0.0,2.0,72,0.00,,,0.00,,2013-01-02 12:33:00,
2013-01-02 05:42:00,12.0,5.0,24.68,ENE,74,0.0,2.0,72,0.00,,,0.00,,2013-01-02 12:42:00,
2013-01-02 05:53:00,12.0,5.0,24.68,ENE,74,0.0,0.0,72,0.00,,,0.00,,2013-01-02 12:53:00,
2013-01-02 06:02:00,11.0,4.0,24.69,ENE,74,0.0,2.0,72,0.00,,,0.00,,2013-01-02 13:02:00,
2013-01-02 06:12:00,11.0,4.0,24.69,ENE,74,0.0,2.0,72,0.00,,,0.00,,2013-01-02 13:12:00,
2013-01-02 06:22:00,10.0,3.0,24.70,SSW,207,1.0,4.0,73,0.00,,,0.00,,2013-01-02 13:22:00,
2013-01-02 06:32:00,11.0,4.0,24.70,SSW,207,0.0,2.0,74,0.00,,,0.00,,2013-01-02 13:32:00,
2013-01-02 06:42:00,11.0,4.0,24.70,SSW,207,0.0,2.0,74,0.00,,,0.00,,2013-01-02 13:42:00,
2013-01-02 06:52:00,10.0,4.0,24.70,SSW,207,0.0,0.0,75,0.00,,,0.00,,2013-01-02 13:52:00,
2013-01-02 07:02:00,10.0,4.0,24.70,SSW,207,0.0,2.0,76,0.00,,,0.00,,2013-01-02 14:02:00,
2013-01-02 07:12:00,10.0,4.0,24.70,SSW,207,0.0,2.0,76,0.00,,,0.00,,2013-01-02 14:12:00,
2013-01-02 07:22:00,10.0,4.0,24.71,SSW,207,0.0,1.0,75,0.00,,,0.00,,2013-01-02 14:22:00,
2013-01-02 07:33:00,10.0,4.0,24.71,SSW,207,0.0,1.0,76,0.00,,,0.00,,2013-01-02 14:33:00,
2013-01-02 07:42:00,10.0,4.0,24.71,SSW,207,0.0,1.0,76,0.00,,,0.00,,2013-01-02 14:42:00,
2013-01-02 07:53:00,10.0,4.0,24.72,SSW,207,0.0,2.0,75,0.00,,,0.00,,2013-01-02 14:53:00,
2013-01-02 08:03:00,10.0,4.0,24.72,SSW,207,0.0,1.0,76,0.00,,,0.00,,2013-01-02 15:03:00,
2013-01-02 08:12:00,10.0,4.0,24.72,SSW,207,0.0,1.0,76,0.00,,,0.00,,2013-01-02 15:12:00,
2013-01-02 08:22:00,11.0,5.0,24.72,SSW,207,0.0,2.0,75,0.00,,,0.00,,2013-01-02 15:22:00,
2013-01-02 08:33:00,14.0,7.0,24.72,SSW,207,0.0,1.0,72,0.00,,,0.00,,2013-01-02 15:33:00,
2013-01-02 08:43:00,14.0,7.0,24.72,SSW,207,0.0,1.0,72,0.00,,,0.00,,2013-01-02 15:43:00,
2013-01-02 08:53:00,16.0,7.0,24.72,SSW,207,0.0,2.0,68,0.00,,,0.00,,2013-01-02 15:53:00,
2013-01-02 09:03:00,20.0,9.0,24.72,SSW,207,0.0,1.0,63,0.00,,,0.00,,2013-01-02 16:03:00,
2013-01-02 09:12:00,20.0,9.0,24.72,SSW,207,0.0,1.0,63,0.00,,,0.00,,2013-01-02 16:12:00,
2013-01-02 09:22:00,23.0,11.0,24.71,SSW,207,0.0,1.0,59,0.00,,,0.00,,2013-01-02 16:22:00,
2013-01-02 09:33:00,27.0,8.0,24.71,SSW,207,0.0,0.0,44,0.00,,,0.00,,2013-01-02 16:33:00,
2013-01-02 09:43:00,27.0,8.0,24.71,SSW,207,0.0,0.0,44,0.00,,,0.00,,2013-01-02 16:43:00,
2013-01-02 09:53:00,29.0,6.0,24.72,NE,48,3.0,10.0,37,0.00,,,0.00,,2013-01-02 16:53:00,
2013-01-02 10:03:00,27.0,10.0,24.72,NE,43,3.0,5.0,49,0.00,,,0.00,,2013-01-02 17:03:00,
2013-01-02 10:12:00,27.0,10.0,24.72,NE,43,3.0,5.0,49,0.00,,,0.00,,2013-01-02 17:12:00,
2013-01-02 10:23:00,28.0,9.0,24.71,ENE,59,2.0,4.0,45,0.00,,,0.00,,2013-01-02 17:23:00,
2013-01-02 10:33:00,28.0,8.0,24.71,ENE,65,2.0,5.0,42,0.00,,,0.00,,2013-01-02 17:33:00,
2013-01-02 10:43:00,28.0,8.0,24.71,ENE,65,2.0,5.0,42,0.00,,,0.00,,2013-01-02 17:43:00,
2013-01-02 10:53:00,30.0,8.0,24.70,ENE,65,4.0,7.0,38,0.00,,,0.00,,2013-01-02 17:53:00,
2013-01-02 11:02:00,30.0,7.0,24.70,East,96,5.0,10.0,37,0.00,,,0.00,,2013-01-02 18:02:00,
2013-01-02 11:12:00,30.0,7.0,24.70,East,96,5.0,10.0,37,0.00,,,0.00,,2013-01-02 18:12:00,
2013-01-02 11:22:00,30.0,7.0,24.70,East,96,5.0,10.0,37,0.00,,,0.00,,2013-01-02 18:22:00,
2013-01-02 11:33:00,32.0,7.0,24.69,ENE,78,7.0,12.0,34,0.00,,,0.00,,2013-01-02 18:33:00,
2013-01-02 11:42:00,32.0,7.0,24.69,ENE,78,7.0,12.0,34,0.00,,,0.00,,2013-01-02 18:42:00,
2013-01-02 11:53:00,32.0,7.0,24.69,ENE,78,7.0,12.0,34,0.00,,,0.00,,2013-01-02 18:53:00,
2013-01-02 12:03:00,32.0,6.0,24.68,NNE,27,4.0,10.0,33,0.00,,,0.00,,2013-01-02 19:03:00,
2013-01-02 12:12:00,32.0,6.0,24.68,NNE,27,4.0,10.0,33,0.00,,,0.00,,2013-01-02 19:12:00,
2013-01-02 12:23:00,32.0,5.0,24.68,ENE,76,2.0,10.0,31,0.00,,,0.00,,2013-01-02 19:23:00,
2013-01-02 12:33:00,33.0,6.0,24.68,NNE,19,6.0,11.0,31,0.00,,,0.00,,2013-01-02 19:33:00,
2013-01-02 12:43:00,33.0,6.0,24.68,NNE,19,6.0,11.0,31,0.00,,,0.00,,2013-01-02 19:43:00,
2013-01-02 12:53:00,31.0,7.0,24.68,ENE,74,6.0,18.0,36,0.00,,,0.00,,2013-01-02 19:53:00,
2013-01-02 13:03:00,30.0,6.0,24.69,NNE,20,6.0,15.0,35,0.00,,,0.00,,2013-01-02 20:03:00,
2013-01-02 13:12:00,30.0,6.0,24.69,NNE,20,6.0,15.0,35,0.00,,,0.00,,2013-01-02 20:12:00,
2013-01-02 13:23:00,29.0,6.0,24.69,NNE,30,3.0,13.0,37,0.00,,,0.00,,2013-01-02 20:23:00,
2013-01-02 13:33:00,30.0,8.0,24.69,North,353,6.0,10.0,38,0.00,,,0.00,,2013-01-02 20:33:00,
2013-01-02 13:42:00,30.0,8.0,24.69,North,353,6.0,10.0,38,0.00,,,0.00,,2013-01-02 20:42:00,
2013-01-02 13:53:00,30.0,8.0,24.68,NNE,18,5.0,9.0,39,0.00,,,0.00,,2013-01-02 20:53:00,
2013-01-02 14:03:00,30.0,9.0,24.68,NNW,346,2.0,8.0,40,0.00,,,0.00,,2013-01-02 21:03:00,
2013-01-02 14:13:00,30.0,9.0,24.68,NNW,346,2.0,8.0,40,0.00,,,0.00,,2013-01-02 21:13:00,
2013-01-02 14:22:00,30.0,8.0,24.68,North,350,0.0,7.0,39,0.00,,,0.00,,2013-01-02 21:22:00,
2013-01-02 14:32:00,30.0,8.0,24.68,ENE,71,1.0,5.0,39,0.00,,,0.00,,2013-01-02 21:32:00,
2013-01-02 14:42:00,30.0,8.0,24.68,ENE,71,1.0,5.0,39,0.00,,,0.00,,2013-01-02 21:42:00,
2013-01-02 14:53:00,30.0,8.0,24.68,NNE,25,0.0,5.0,39,0.00,,,0.00,,2013-01-02 21:53:00,
2013-01-02 15:03:00,30.0,8.0,24.68,NNE,25,0.0,5.0,39,0.00,,,0.00,,2013-01-02 22:03:00,
2013-01-02 15:12:00,30.0,8.0,24.68,NNE,25,0.0,5.0,39,0.00,,,0.00,,2013-01-02 22:12:00,
2013-01-02 15:22:00,30.0,8.0,24.68,NW,326,0.0,6.0,39,0.00,,,0.00,,2013-01-02 22:22:00,
2013-01-02 15:32:00,31.0,8.0,24.68,SE,128,4.0,8.0,38,0.00,,,0.00,,2013-01-02 22:32:00,
2013-01-02 15:42:00,31.0,8.0,24.68,SE,128,4.0,8.0,38,0.00,,,0.00,,2013-01-02 22:42:00,
2013-01-02 15:52:00,30.0,9.0,24.68,East,96,2.0,10.0,41,0.00,,,0.00,,2013-01-02 22:52:00,
2013-01-02 16:03:00,30.0,10.0,24.69,ESE,116,3.0,7.0,42,0.00,,,0.00,,2013-01-02 23:03:00,
2013-01-02 16:12:00,30.0,10.0,24.69,ESE,116,3.0,7.0,42,0.00,,,0.00,,2013-01-02 23:12:00,
2013-01-02 16:23:00,30.0,10.0,24.70,ESE,105,6.0,9.0,42,0.00,,,0.00,,2013-01-02 23:23:00,
2013-01-02 16:33:00,29.0,9.0,24.70,ESE,114,3.0,9.0,43,0.00,,,0.00,,2013-01-02 23:33:00,
2013-01-02 16:42:00,29.0,9.0,24.70,ESE,114,3.0,9.0,43,0.00,,,0.00,,2013-01-02 23:42:00,
2013-01-02 16:52:00,28.0,9.0,24.71,ENE,74,6.0,8.0,44,0.00,,,0.00,,2013-01-02 23:52:00,
2013-01-02 17:02:00,28.0,10.0,24.71,ENE,71,2.0,7.0,46,0.00,,,0.00,,2013-01-03 00:02:00,
2013-01-02 17:12:00,28.0,10.0,24.71,ENE,71,2.0,7.0,46,0.00,,,0.00,,2013-01-03 00:12:00,
2013-01-02 17:22:00,27.0,10.0,24.72,East,80,5.0,8.0,48,0.00,,,0.00,,2013-01-03 00:22:00,
2013-01-02 17:38:00,27.0,10.0,24.73,ESE,103,2.0,6.0,49,0.00,,,0.00,,2013-01-03 00:38:00,
2013-01-02 17:52:00,26.0,10.0,24.73,ESE,114,0.0,6.0,50,0.00,,,0.00,,2013-01-03 00:52:00,
2013-01-02 18:02:00,25.0,10.0,24.74,ESE,121,0.0,2.0,52,0.00,,,0.00,,2013-01-03 01:02:00,
2013-01-02 18:12:00,25.0,10.0,24.74,ESE,121,0.0,2.0,52,0.00,,,0.00,,2013-01-03 01:12:00,
2013-01-02 18:22:00,25.0,10.0,24.74,ESE,123,0.0,2.0,52,0.00,,,0.00,,2013-01-03 01:22:00,
2013-01-02 18:32:00,25.0,10.0,24.74,South,171,2.0,5.0,53,0.00,,,0.00,,2013-01-03 01:32:00,
2013-01-02 18:42:00,25.0,10.0,24.74,South,171,2.0,5.0,53,0.00,,,0.00,,2013-01-03 01:42:00,
2013-01-02 18:52:00,25.0,10.0,24.75,SSE,158,2.0,6.0,53,0.00,,,0.00,,2013-01-03 01:52:00,
2013-01-02 19:02:00,23.0,10.0,24.75,WSW,242,0.0,3.0,57,0.00,,,0.00,,2013-01-03 02:02:00,
2013-01-02 19:12:00,23.0,10.0,24.75,WSW,242,0.0,3.0,57,0.00,,,0.00,,2013-01-03 02:12:00,
2013-01-02 19:22:00,21.0,9.0,24.75,WSW,242,0.0,2.0,60,0.00,,,0.00,,2013-01-03 02:22:00,
2013-01-02 19:33:00,22.0,10.0,24.75,SSW,211,4.0,7.0,58,0.00,,,0.00,,2013-01-03 02:33:00,
2013-01-02 19:42:00,22.0,10.0,24.75,SSW,211,4.0,7.0,58,0.00,,,0.00,,2013-01-03 02:42:00,
2013-01-02 19:52:00,22.0,10.0,24.75,SSW,211,4.0,7.0,58,0.00,,,0.00,,2013-01-03 02:52:00,
2013-01-02 20:02:00,23.0,10.0,24.76,SW,215,2.0,7.0,57,0.00,,,0.00,,2013-01-03 03:02:00,
2013-01-02 20:12:00,23.0,10.0,24.76,SSW,195,2.0,6.0,57,0.00,,,0.00,,2013-01-03 03:12:00,
2013-01-02 20:22:00,23.0,10.0,24.76,SSW,195,2.0,6.0,57,0.00,,,0.00,,2013-01-03 03:22:00,
2013-01-02 20:46:00,22.0,9.0,24.76,SSW,196,2.0,4.0,57,0.00,,,0.00,,2013-01-03 03:46:00,
2013-01-02 20:52:00,22.0,9.0,24.76,SSW,206,1.0,4.0,57,0.00,,,0.00,,2013-01-03 03:52:00,
2013-01-02 21:02:00,19.0,9.0,24.77,SSW,206,0.0,2.0,64,0.00,,,0.00,,2013-01-03 04:02:00,
2013-01-02 21:12:00,19.0,9.0,24.77,SSW,206,0.0,2.0,64,0.00,,,0.00,,2013-01-03 04:12:00,
2013-01-02 21:22:00,22.0,10.0,24.77,SSW,196,2.0,6.0,58,0.00,,,0.00,,2013-01-03 04:22:00,
2013-01-02 21:32:00,22.0,10.0,24.77,South,184,3.0,7.0,58,0.00,,,0.00,,2013-01-03 04:32:00,
2013-01-02 21:42:00,22.0,10.0,24.77,South,184,3.0,7.0,58,0.00,,,0.00,,2013-01-03 04:42:00,
2013-01-02 21:52:00,19.0,8.0,24.77,WSW,251,0.0,3.0,62,0.00,,,0.00,,2013-01-03 04:52:00,
2013-01-02 22:03:00,19.0,8.0,24.77,WSW,251,0.0,3.0,62,0.00,,,0.00,,2013-01-03 05:03:00,
2013-01-02 22:12:00,19.0,8.0,24.77,WSW,251,0.0,3.0,62,0.00,,,0.00,,2013-01-03 05:12:00,
2013-01-02 22:22:00,18.0,7.0,24.78,WSW,251,0.0,2.0,62,0.00,,,0.00,,2013-01-03 05:22:00,
2013-01-02 22:33:00,18.0,7.0,24.78,WSW,251,0.0,2.0,62,0.00,,,0.00,,2013-01-03 05:33:00,
2013-01-02 22:42:00,18.0,7.0,24.78,WSW,251,0.0,2.0,62,0.00,,,0.00,,2013-01-03 05:42:00,
2013-01-02 22:52:00,15.0,7.0,24.79,WSW,251,0.0,1.0,69,0.00,,,0.00,,2013-01-03 05:52:00,
2013-01-02 23:02:00,14.0,6.0,24.79,WSW,251,1.0,3.0,71,0.00,,,0.00,,2013-01-03 06:02:00,
2013-01-02 23:12:00,14.0,6.0,24.79,WSW,251,1.0,3.0,71,0.00,,,0.00,,2013-01-03 06:12:00,
2013-01-02 23:22:00,15.0,7.0,24.80,WSW,251,0.0,2.0,71,0.00,,,0.00,,2013-01-03 06:22:00,
2013-01-02 23:32:00,15.0,7.0,24.81,WSW,251,0.0,0.0,71,0.00,,,0.00,,2013-01-03 06:32:00,
2013-01-02 23:42:00,15.0,7.0,24.81,WSW,251,0.0,0.0,71,0.00,,,0.00,,2013-01-03 06:42:00,
2013-01-02 23:52:00,15.0,7.0,24.81,WSW,251,0.0,1.0,70,0.00,,,0.00,,2013-01-03 06:52:00,